JS2WAD-13 Weather Reports


Display with metric or nautical units.
time (UTC)temp
F
wind
direction
speed
MPH
gust
MPH
rain 1hr
in
rain 24hr
in
rain mn
in
humidity
%
barometer
mb
20260504141126 58 39 7.0 15.0 0.00 0.01 0.01 65 905.5
20260504140626 58 39 7.0 13.0 0.00 0.01 0.01 62 905.6
20260504140126 58 33 7.0 13.0 0.00 0.01 0.01 63 905.6
20260504130626 59 23 8.0 14.0 0.00 0.01 0.01 67 904.9
20260504130126 59 4 8.0 15.0 0.00 0.01 0.01 63 904.9
20260504120126 60 28 7.0 14.0 0.00 0.01 0.01 66 904.2
20260504110626 60 35 7.0 17.0 0.00 0.01 0.01 65 903.1
20260504110126 61 36 6.0 17.0 0.00 0.01 0.01 67 903.1
20260504100126 61 16 8.0 15.0 0.00 0.01 0.01 64 901.8
20260504090126 62 35 7.0 13.0 0.00 0.02 0.01 69 900.8
20260504081626 61 32 6.0 15.0 0.01 0.02 0.01 78 900.3
20260504081126 61 34 7.0 9.0 0.01 0.02 0.01 76 900.3
20260504080626 61 22 6.0 12.0 0.01 0.02 0.01 77 900.3
20260504080126 61 41 7.0 12.0 0.01 0.02 0.01 77 900.3
20260504070127 67 34 12.0 25.0 0.00 0.01 0.00 58 898.6
20260504060127 71 347 9.0 19.0 0.00 0.02 0.00 55 897.1
20260504050627 70 16 8.0 17.0 0.00 0.02 0.00 56 896.5
20260504050127 70 316 8.0 16.0 0.00 0.02 0.00 58 896.4
20260504045627 71 21 8.0 20.0 0.00 0.02 0.00 61 896.3
20260504045127 71 14 7.0 17.0 0.00 0.02 0.00 59 896.3
20260504044627 72 28 7.0 13.0 0.00 0.02 0.00 59 896.2
20260504044127 72 38 8.0 19.0 0.00 0.02 0.00 58 896.0
20260504043627 73 39 6.0 16.0 0.00 0.02 0.00 53 896.1
20260504043127 73 15 5.0 11.0 0.00 0.02 0.00 41 895.9
20260504042627 74 270 5.0 12.0 0.00 0.02 0.00 42 895.9
20260504042127 74 185 5.0 12.0 0.00 0.02 0.00 42 895.7
20260504041627 74 359 5.0 12.0 0.00 0.02 0.00 41 895.8
20260504041127 73 359 5.0 14.0 0.00 0.02 0.00 42 895.8
20260504040627 73 165 5.0 19.0 0.00 0.02 0.00 44 895.6
20260504040127 73 156 6.0 13.0 0.00 0.02 0.00 45 895.7
20260504035627 73 35 8.0 17.0 0.00 0.02 0.00 44 895.5
20260504035127 73 149 7.0 19.0 0.00 0.02 0.00 44 895.9
20260504034627 73 359 3.0 10.0 0.00 0.02 0.00 48 895.7
20260504034127 73 334 3.0 9.0 0.00 0.02 0.00 51 895.7
20260504033627 73 168 3.0 9.0 0.00 0.02 0.00 50 895.7
20260504033127 73 42 4.0 4.0 0.00 0.02 0.00 52 895.7
20260504032627 72 161 5.0 12.0 0.00 0.02 0.00 50 895.7
20260504032127 72 214 5.0 15.0 0.00 0.02 0.00 51 895.9
20260504031627 73 214 5.0 11.0 0.00 0.02 0.00 51 895.9
20260504031127 73 166 5.0 11.0 0.00 0.02 0.00 52 895.8
20260504030627 73 20 5.0 10.0 0.00 0.02 0.00 51 895.8
20260504030127 74 267 5.0 14.0 0.00 0.02 0.00 49 895.7
20260504025627 74 359 5.0 13.0 0.00 0.02 0.00 49 895.6
20260504025127 74 4 5.0 14.0 0.00 0.02 0.00 50 895.7
20260504024627 74 206 5.0 19.0 0.00 0.02 0.00 51 895.7
20260504024127 73 359 5.0 10.0 0.00 0.02 0.00 53 895.8
20260504023627 73 187 5.0 14.0 0.00 0.02 0.00 55 895.5
20260504023127 73 133 3.0 10.0 0.00 0.02 0.00 60 895.5
20260504022627 73 209 4.0 10.0 0.00 0.02 0.00 58 895.7
20260504022127 73 193 5.0 13.0 0.00 0.02 0.00 58 895.7
20260504021627 73 359 4.0 10.0 0.00 0.02 0.00 61 895.8
20260504021127 73 349 4.0 11.0 0.00 0.02 0.00 60 895.5
20260504020627 73 359 5.0 11.0 0.00 0.02 0.00 57 895.6
20260504020127 73 233 4.0 10.0 0.00 0.02 0.00 61 895.6
20260504015627 73 345 5.0 16.0 0.00 0.02 0.00 63 895.7
20260504015127 72 359 5.0 13.0 0.00 0.02 0.00 62 895.6
20260504014627 72 359 5.0 11.0 0.00 0.02 0.00 71 895.4
20260504014127 72 4 5.0 15.0 0.00 0.02 0.00 65 895.6
20260504013628 71 168 4.0 11.0 0.00 0.02 0.00 65 895.8
20260504013127 71 249 3.0 9.0 0.00 0.02 0.00 69 895.9
20260504012627 71 173 3.0 7.0 0.00 0.02 0.00 67 895.7
20260504012127 70 172 4.0 9.0 0.00 0.02 0.00 69 895.8
20260504011627 70 195 3.0 10.0 0.00 0.02 0.00 69 895.7
20260504011127 70 4 3.0 11.0 0.00 0.02 0.00 75 895.8
20260504010627 69 208 2.0 10.0 0.00 0.02 0.00 75 895.7
20260504010127 69 236 2.0 5.0 0.00 0.02 0.00 77 895.8
20260504005627 69 37 4.0 5.0 0.00 0.02 0.00 76 895.8
20260504005127 69 37 4.0 9.0 0.00 0.02 0.00 78 895.9
20260504004627 68 15 2.0 9.0 0.00 0.02 0.00 76 896.0
20260504004128 68 33 2.0 7.0 0.00 0.02 0.00 78 895.7
20260504003628 69 295 5.0 9.0 0.00 0.02 0.00 77 896.0
20260504003127 69 45 5.0 10.0 0.00 0.02 0.00 81 896.0
20260504002628 69 26 3.0 9.0 0.00 0.02 0.00 81 895.9
20260504002128 69 43 4.0 8.0 0.00 0.02 0.00 83 896.0
20260504001628 68 47 4.0 8.0 0.00 0.02 0.00 89 895.5
20260504001128 68 33 5.0 10.0 0.00 0.02 0.00 86 895.7
20260504000628 67 30 4.0 9.0 0.00 0.02 0.00 89 895.5
20260504000128 67 25 3.0 7.0 0.00 0.02 0.00 87 895.6
20260503235628 66 35 3.0 8.0 0.00 0.02 0.00 85 895.5
20260503235128 66 22 3.0 5.0 0.00 0.02 0.00 88 895.5
20260503234628 66 39 4.0 9.0 0.00 0.02 0.00 90 895.5
20260503234128 66 45 3.0 8.0 0.00 0.02 0.00 90 895.7
20260503233628 65 29 2.0 8.0 0.00 0.02 0.00 90 895.7
20260503233128 65 42 2.0 4.0 0.00 0.02 0.00 91 895.7
20260503232628 65 40 1.0 5.0 0.00 0.02 0.00 93 895.5
20260503232128 65 41 0.0 2.0 0.00 0.02 0.00 93 895.6
20260503231628 65 41 0.0 3.0 0.00 0.02 0.00 94 895.6
20260503231128 65 45 0.0 1.0 0.00 0.02 0.00 93 895.6
20260503230628 65 44 0.0 1.0 0.00 0.02 0.00 94 895.6
20260503230128 65 44 0.0 1.0 0.00 0.02 0.00 95 895.4
20260503225628 65 44 0.0 1.0 0.00 0.02 0.00 95 895.4
20260503225128 65 44 0.0 2.0 0.00 0.02 0.00 95 895.5
20260503224628 65 44 0.0 0.0 0.00 0.02 0.00 95 895.3
20260503224128 65 45 0.0 0.0 0.00 0.02 0.00 95 895.3
20260503223628 65 45 0.0 2.0 0.00 0.02 0.00 95 895.4
20260503223128 65 45 0.0 3.0 0.00 0.02 0.00 95 895.3
20260503222628 65 46 0.0 2.0 0.00 0.02 0.00 95 895.2
20260503222128 65 46 0.0 3.0 0.00 0.02 0.00 95 895.0
20260503221628 64 47 1.0 2.0 0.00 0.02 0.00 95 894.8
20260503221128 64 48 2.0 3.0 0.00 0.02 0.00 95 894.8
20260503220628 64 44 2.0 5.0 0.00 0.02 0.00 95 894.6
20260503220128 64 39 3.0 5.0 0.00 0.02 0.00 95 894.5
20260503215628 64 38 4.0 8.0 0.00 0.02 0.00 95 894.6
20260503215128 64 29 4.0 7.0 0.00 0.02 0.00 95 894.6
20260503214628 64 39 4.0 9.0 0.00 0.02 0.00 95 894.6
20260503214128 65 33 3.0 8.0 0.00 0.02 0.00 95 894.4
20260503213628 65 38 1.0 6.0 0.00 0.02 0.00 95 894.3
20260503213128 65 42 0.0 2.0 0.00 0.02 0.00 96 894.3
20260503212628 65 43 0.0 2.0 0.00 0.02 0.00 96 894.2
20260503212128 65 40 0.0 1.0 0.00 0.02 0.00 96 894.3
20260503211628 65 41 1.0 3.0 0.00 0.02 0.00 96 894.4
20260503211128 65 37 1.0 4.0 0.00 0.02 0.00 96 894.2
20260503210628 65 41 2.0 5.0 0.00 0.02 0.00 96 894.1
20260503210128 65 43 4.0 4.0 0.00 0.02 0.00 95 894.0
20260503205628 65 26 4.0 8.0 0.00 0.02 0.00 95 894.0
20260503205128 65 41 3.0 8.0 0.00 0.02 0.00 95 893.7
20260503204628 66 41 1.0 4.0 0.00 0.02 0.00 95 893.6
20260503204128 66 33 2.0 4.0 0.00 0.02 0.00 95 893.6
20260503203628 66 41 4.0 5.0 0.00 0.02 0.00 95 893.6
20260503203128 66 47 3.0 9.0 0.00 0.02 0.00 95 893.6
20260503202628 66 43 3.0 6.0 0.00 0.02 0.00 95 893.5
20260503202128 66 43 3.0 6.0 0.00 0.02 0.00 95 893.4
20260503201628 67 28 3.0 6.0 0.00 0.02 0.00 96 893.5
20260503201128 67 39 1.0 5.0 0.00 0.02 0.00 95 893.6
20260503200628 67 10 1.0 3.0 0.00 0.02 0.00 96 893.4
20260503200128 67 170 0.0 4.0 0.00 0.02 0.00 95 893.3
20260503195628 67 168 0.0 1.0 0.00 0.02 0.00 95 893.2
20260503195128 67 165 1.0 4.0 0.00 0.02 0.00 95 893.3
20260503194628 67 166 1.0 5.0 0.00 0.02 0.00 96 893.2
20260503194128 67 167 1.0 1.0 0.00 0.02 0.00 96 893.0
20260503193628 67 168 1.0 4.0 0.00 0.02 0.00 96 892.6
20260503193128 67 170 0.0 2.0 0.00 0.02 0.00 96 892.6
20260503192628 67 166 1.0 2.0 0.00 0.02 0.00 95 892.5
20260503192128 67 172 1.0 5.0 0.00 0.02 0.00 95 892.5
20260503191628 67 212 0.0 2.0 0.00 0.02 0.00 96 892.4
20260503191128 68 210 0.0 0.0 0.00 0.02 0.00 95 892.2
20260503190628 68 359 0.0 1.0 0.00 0.02 0.00 95 892.2
20260503190128 68 214 1.0 2.0 0.00 0.02 0.00 95 892.1
20260503185628 68 209 1.0 3.0 0.00 0.02 0.00 95 892.3
20260503185128 68 359 1.0 5.0 0.00 0.02 0.00 96 892.2
20260503184628 68 246 1.0 2.0 0.00 0.02 0.00 96 892.3
20260503184128 68 186 1.0 3.0 0.00 0.02 0.00 96 892.0
20260503183628 68 171 1.0 2.0 0.00 0.02 0.00 96 892.1
20260503183128 68 359 1.0 1.0 0.00 0.02 0.00 96 891.9
20260503182628 68 169 1.0 5.0 0.00 0.02 0.00 96 891.8
20260503182128 68 195 1.0 3.0 0.00 0.02 0.00 95 891.7
20260503181628 68 175 1.0 6.0 0.00 0.02 0.00 95 891.8
20260503181128 68 193 1.0 6.0 0.00 0.02 0.00 95 891.7
20260503180628 68 359 2.0 4.0 0.00 0.02 0.00 95 891.5
20260503180128 68 154 1.0 6.0 0.00 0.02 0.00 95 891.4
20260503175628 68 181 1.0 3.0 0.00 0.02 0.00 95 891.2
20260503175128 68 208 2.0 5.0 0.00 0.02 0.00 95 891.6
20260503174628 68 160 2.0 8.0 0.00 0.02 0.00 95 891.4
20260503174128 68 153 3.0 6.0 0.00 0.02 0.00 95 891.3
20260503173628 68 154 3.0 7.0 0.00 0.02 0.00 95 891.3
20260503173128 68 155 2.0 7.0 0.00 0.02 0.00 95 891.2
20260503172628 68 359 3.0 7.0 0.00 0.02 0.00 95 891.3
20260503172128 68 143 3.0 8.0 0.00 0.02 0.00 95 891.3
20260503171628 68 163 3.0 6.0 0.00 0.02 0.00 95 891.4
20260503171128 68 170 4.0 9.0 0.00 0.02 0.00 95 891.5
20260503170628 68 154 4.0 9.0 0.00 0.02 0.00 95 891.4
20260503170128 68 154 4.0 8.0 0.00 0.02 0.00 95 891.4
20260503160129 68 160 5.0 14.0 0.00 0.02 0.02 94 892.4
20260503150629 67 145 4.0 10.0 0.00 0.02 0.02 90 893.9
20260503150129 67 158 5.0 11.0 0.00 0.02 0.02 90 894.1